This demonstration page uses our WeatherBlox Daily Observations layout. Learn more.

Hourly Observations for August 31, 2017

Temp ( °F °C ) Dew Point ( °F °C ) Humidity (%) Winds ( mph kmh ) Pressure ( in mb ) Visibility ( mi km ) Precip ( " mm )
12:54 am 00:54 Clear 64 17.8 59 15 84 84 Calm 30.11 1020 10 16.0934 0 0
1:54 am 01:54 Clear 61 16.1 58 14.4 90 90 NNW 3 6 30.11 1020 10 16.0934 0 0
2:54 am 02:54 Clear 59 15 57 13.9 93 93 N 6 9 30.11 1020 10 16.0934 0 0
3:54 am 03:54 Clear 60 15.6 58 14.4 93 93 N 3 6 30.11 1020 9 14.48406 0 0
4:54 am 04:54 Clear 58 14.4 56 13.3 93 93 N 3 6 30.11 1020 8 12.87472 0 0
5:54 am 05:54 Clear 58 14.4 56 13.3 93 93 N 5 7 30.12 1020 8 12.87472 0 0
6:54 am 06:54 Sunny 57 13.9 55 12.8 93 93 N 5 7 30.13 1020 9 14.48406 0 0
7:54 am 07:54 Sunny 61 16.1 58 14.4 90 90 N 3 6 30.14 1021 8 12.87472 0 0
8:54 am 08:54 Sunny 66 18.9 60 15.6 81 81 WNW 3 6 30.14 1021 10 16.0934 0 0
9:54 am 09:54 Sunny 72 22.2 63 17.2 73 73 Calm 30.14 1021 10 16.0934 0 0
10:54 am 10:54 Sunny 76 24.4 63 17.2 64 64 WNW 3 6 30.13 1020 10 16.0934 0 0
11:54 am 11:54 Mostly Sunny 80 26.7 63 17.2 56 56 ESE 5 7 30.13 1020 10 16.0934 0 0
12:54 pm 12:54 Mostly Cloudy 80 26.7 60 15.6 51 51 VRB 3 6 30.11 1020 10 16.0934 0 0
1:54 pm 13:54 Mostly Sunny 82 27.8 62 16.7 51 51 ENE 7 11 30.1 1019 10 16.0934 0 0
2:54 pm 14:54 Mostly Sunny 82 27.8 61 16.1 49 49 VRB 7 11 30.08 1019 10 16.0934 0 0
3:54 pm 15:54 Mostly Sunny 83 28.3 61 16.1 48 48 SE 6 9 30.06 1018 10 16.0934 0 0
4:54 pm 16:54 Partly Cloudy 83 28.3 60 15.6 46 46 ENE 5 7 30.05 1018 10 16.0934 0 0
5:54 pm 17:54 Sunny 81 27.2 60 15.6 49 49 ESE 7 11 30.05 1018 10 16.0934 0 0
6:54 pm 18:54 Sunny 79 26.1 60 15.6 52 52 ESE 7 11 30.04 1017 10 16.0934 0 0
7:54 pm 19:54 Sunny 76 24.4 62 16.7 62 62 ESE 5 7 30.04 1017 10 16.0934 0 0
8:54 pm 20:54 Clear 73 22.8 62 16.7 69 69 ESE 6 9 30.06 1018 10 16.0934 0 0
9:54 pm 21:54 Clear 73 22.8 62 16.7 69 69 ESE 5 7 30.06 1018 10 16.0934 0 0
10:54 pm 22:54 Clear 71 21.7 61 16.1 71 71 Calm 30.06 1018 10 16.0934 0 0
11:54 pm 23:54 Clear 67 19.4 61 16.1 81 81 Calm 30.06 1018 10 16.0934 0 0

Powered by AerisWeather